GFSGBSN_850_thetae_000.txt.gz
Theta_e
310 310 310 309 309 309 310 311 313 314 314 314 313 313 313 313 314 315 316 316 317 316 315 314 313 314 315 317 316 315 316 316 314 314 315 316 316 317 318 317 318 318 318 319 317 316 316
311 311 311 310 310 310 310 312 313 314 314 314 314 314 313 314 315 316 317 318 318 318 316 315 315 315 317 318 316 317 317 317 317 316 316 316 316 318 318 319 319 319 320 320 319 318 317
312 312 312 312 311 311 310 310 313 314 314 315 315 315 315 316 317 318 318 318 318 318 317 317 316 316 317 316 316 317 318 318 318 317 316 317 316 317 317 320 318 318 320 320 318 318 319
311 311 311 311 312 312 311 310 311 314 315 315 315 315 316 316 318 319 319 318 317 317 317 317 316 317 317 316 317 318 318 318 318 317 316 315 316 317 319 318 318 319 319 318 318 316 317
311 311 311 311 312 312 312 312 310 313 315 315 315 315 316 317 318 319 318 318 317 317 317 316 316 318 317 317 317 318 317 317 318 318 317 315 315 316 317 319 318 317 316 316 316 316 315
311 312 313 313 312 313 313 312 311 310 314 315 315 316 317 318 318 317 317 317 317 316 317 316 316 318 316 316 316 318 318 317 318 318 318 317 317 318 317 317 317 317 317 316 316 315 315
311 313 315 315 313 313 314 314 313 311 311 315 315 316 317 317 318 318 318 317 317 317 316 316 316 316 315 314 315 315 318 318 317 318 320 317 318 318 317 316 316 316 316 316 316 315 314
310 312 316 315 314 313 315 314 315 313 312 311 315 316 317 317 317 318 318 317 316 316 317 315 315 315 315 314 316 315 317 318 317 318 318 319 319 316 315 315 316 316 317 317 316 315 315
309 311 315 315 315 314 314 314 315 315 314 312 311 315 316 317 317 317 318 315 315 315 317 316 315 315 314 314 314 314 314 316 316 316 316 318 317 314 315 316 316 317 317 316 316 316 317
309 310 314 315 315 314 314 314 315 315 316 313 312 312 315 315 317 317 317 318 319 319 318 317 316 316 314 314 314 313 312 314 316 316 316 317 316 315 316 316 315 317 314 314 315 316 318
309 309 311 315 315 314 314 315 315 314 315 316 314 313 313 316 318 317 317 317 320 322 327 318 316 315 314 314 314 315 312 314 316 315 316 317 315 315 316 315 313 316 314 315 314 315 315
310 309 310 314 314 314 315 315 314 314 314 315 314 315 312 313 318 317 317 316 320 328 322 318 315 315 316 315 315 314 313 312 310 313 313 314 312 314 314 314 312 313 316 317 314 315 319
309 309 309 312 314 314 314 314 313 314 314 314 314 314 316 313 312 315 316 317 326 325 317 317 316 316 316 316 316 314 314 315 315 316 316 315 315 314 313 316 314 316 318 323 322 323 322
309 309 309 310 313 314 314 313 312 313 315 315 314 314 315 317 316 315 316 327 322 317 318 314 315 316 317 315 315 314 315 316 314 315 315 318 318 314 313 315 316 314 316 320 325 322 321
309 309 308 309 313 314 314 313 311 312 315 315 315 318 316 316 319 318 322 325 321 318 315 315 316 318 317 316 315 315 315 315 314 315 318 319 319 315 312 313 314 316 319 314 316 312 316
308 308 308 308 313 314 314 313 311 311 315 315 317 318 315 316 318 319 325 316 316 313 313 315 317 316 317 316 316 316 315 314 314 312 312 316 319 315 314 313 313 315 313 319 318 324 323
307 307 308 310 314 314 314 313 312 311 314 317 319 319 315 317 314 318 323 316 314 312 313 315 316 316 316 316 316 316 316 314 313 314 313 315 316 319 317 318 319 318 318 314 315 316 322
307 309 311 312 314 314 314 314 312 312 312 316 317 320 315 317 320 316 319 315 312 313 313 315 315 315 316 316 317 316 316 316 312 313 317 315 317 319 319 317 312 315 317 316 319 320 319
310 311 313 314 314 314 314 314 313 312 311 316 318 317 315 316 325 321 316 315 315 315 314 315 316 315 315 317 318 316 316 314 313 313 317 316 317 320 320 315 313 315 315 315 316 316 318
313 313 314 315 315 315 315 314 313 313 313 313 316 322 316 316 315 319 319 318 318 315 315 314 315 315 317 318 316 317 317 315 314 314 314 314 318 319 321 319 318 319 318 317 317 319 320
315 315 316 316 316 315 315 315 314 313 313 313 312 315 311 322 318 317 318 317 319 319 316 314 316 316 317 318 315 317 316 316 315 314 315 316 318 317 317 317 316 316 316 316 317 317 318
315 316 316 316 316 316 315 315 315 314 314 314 316 316 311 314 313 315 314 317 317 316 315 316 317 316 316 316 316 317 316 317 316 315 316 314 317 314 315 315 316 316 316 316 316 316 317
315 315 315 315 315 315 316 316 315 315 315 314 313 312 312 309 313 315 316 316 315 315 314 315 316 317 317 316 315 315 315 315 315 316 316 315 315 316 318 315 314 316 316 316 316 316 316
315 316 315 315 314 314 315 315 315 316 316 315 314 313 313 321 313 316 312 315 316 316 316 315 315 317 315 313 314 314 314 314 314 314 314 315 312 315 317 317 320 317 315 314 314 314 314
316 316 316 316 316 316 315 314 314 315 315 315 315 314 314 315 315 312 313 314 314 314 314 315 315 315 314 314 317 315 316 314 314 312 313 314 315 317 319 319 317 315 315 314 313 313 313
315 316 316 316 316 316 316 316 316 314 315 315 315 316 315 314 315 315 315 315 317 317 315 313 313 313 313 315 313 318 317 316 315 315 307 309 311 314 319 318 319 316 315 309 308 314 311
313 315 315 315 316 316 316 316 316 315 315 314 315 316 316 315 315 314 315 317 314 315 316 314 313 312 311 309 316 316 317 314 316 317 315 313 312 312 314 315 316 315 309 308 315 317 310
313 313 313 314 315 315 316 316 316 316 315 316 315 315 316 316 315 315 314 315 313 314 317 313 314 312 310 312 313 314 313 316 315 315 317 317 316 315 315 317 318 312 308 313 313 313 313
312 312 312 313 313 313 315 316 316 316 315 315 316 316 315 315 315 314 314 313 313 314 313 313 314 313 313 315 312 312 310 309 314 315 312 314 314 319 316 317 315 313 311 312 313 313 312

GFSGBSN_850_thetae_003.txt.gz
Theta_e
310 310 310 309 310 311 312 314 314 314 314 313 313 313 314 314 315 316 316 316 315 314 314 314 315 316 318 319 318 317 317 316 316 316 316 317 317 318 319 319 319 320 319 319 319 319 319
312 311 311 311 310 310 312 314 314 314 314 314 314 314 314 315 316 316 317 316 316 315 315 315 315 318 320 318 318 318 318 319 318 318 318 318 318 319 320 320 321 320 320 321 320 320 319
312 311 311 311 311 311 311 313 314 315 315 315 315 315 316 316 317 318 318 318 317 317 316 316 317 318 318 318 318 318 319 319 319 318 318 316 318 320 320 322 321 320 322 321 320 319 319
310 310 311 312 312 312 311 311 314 315 315 315 315 316 317 318 318 318 318 318 317 317 317 316 317 320 318 318 318 318 319 319 318 318 318 317 318 319 322 320 320 320 321 319 319 318 318
311 312 312 312 313 313 312 310 313 315 315 315 316 316 317 319 318 318 318 317 317 317 317 317 320 321 319 318 318 318 318 319 319 319 318 318 317 318 320 322 322 320 319 318 318 318 318
313 314 313 313 313 314 313 312 311 313 315 315 316 316 317 318 318 317 317 317 316 317 316 317 318 320 318 318 318 318 319 319 319 319 320 319 319 322 320 320 319 318 319 320 320 319 318
314 316 315 314 313 314 313 314 313 311 314 315 316 317 317 318 316 316 316 317 320 319 318 319 318 317 317 317 317 317 318 319 319 320 320 319 322 320 319 319 318 319 320 321 321 318 318
312 316 315 315 314 314 313 314 315 313 311 314 315 317 317 317 318 318 318 322 318 320 318 317 316 316 315 316 317 316 316 319 319 320 318 322 322 319 318 318 319 320 321 321 320 320 320
310 314 316 315 314 314 314 314 314 315 313 312 313 316 317 317 317 317 321 315 315 317 320 317 316 316 316 316 316 316 315 317 317 318 317 319 320 317 318 319 319 320 320 320 320 320 321
309 312 316 315 314 314 315 314 314 314 315 313 312 313 315 316 317 316 318 315 316 318 324 318 318 317 316 316 317 315 314 315 318 318 317 319 318 317 318 318 318 320 319 319 320 320 322
309 310 315 315 314 314 315 314 314 314 314 315 314 312 315 316 321 321 318 318 320 322 334 319 318 316 316 316 316 317 314 316 318 317 318 320 317 316 318 317 317 319 318 319 320 320 321
310 309 311 314 315 314 314 313 313 314 314 315 314 315 311 316 318 318 317 317 322 332 328 320 317 318 318 317 317 316 316 315 314 316 316 316 314 317 317 317 317 317 321 323 322 321 324
310 310 310 312 314 314 314 313 312 313 314 315 314 314 316 312 321 318 318 321 329 331 320 320 319 318 318 318 318 317 318 319 319 321 320 319 318 316 316 319 320 321 322 326 326 326 325
309 310 310 310 313 314 314 312 312 311 315 315 314 316 316 316 313 314 317 324 330 322 321 318 318 318 320 318 318 317 318 320 318 320 321 321 322 317 317 318 319 320 320 324 326 325 324
309 310 309 309 311 314 314 313 312 311 315 315 316 319 317 318 316 315 324 329 325 321 318 319 318 319 320 318 317 318 319 319 318 318 321 322 322 319 316 317 318 321 323 319 320 321 321
308 309 309 308 310 314 314 313 312 311 315 315 323 323 317 314 318 319 326 319 319 316 317 317 320 318 320 319 318 319 319 317 317 316 317 320 321 320 318 318 317 319 319 323 322 329 326
307 308 308 308 309 314 314 314 312 311 314 317 323 323 316 315 317 322 325 320 317 315 316 318 319 319 318 318 319 319 319 317 316 317 317 319 320 322 320 322 322 321 322 320 319 321 326
306 307 307 308 310 313 314 314 313 313 313 317 321 324 316 316 324 321 322 318 315 316 316 317 318 318 319 319 321 320 319 319 316 316 319 319 319 322 322 320 317 318 320 321 323 323 323
306 306 307 309 312 314 314 314 314 313 313 317 321 320 317 318 328 324 318 318 317 318 317 318 319 319 318 320 321 319 319 317 316 317 319 318 320 322 322 320 318 321 321 320 320 321 322
309 308 310 313 314 315 314 315 314 313 313 313 320 330 321 321 321 322 321 321 320 317 317 318 318 318 320 320 319 320 320 318 317 317 315 315 319 321 323 322 320 321 320 320 321 324 324
312 312 313 314 315 315 315 315 315 314 313 317 318 319 315 325 322 321 321 320 321 321 319 318 319 319 319 320 318 318 319 319 318 316 316 318 320 320 319 319 318 319 319 319 319 320 322
315 315 315 316 316 316 316 315 315 315 314 318 320 320 318 318 317 319 317 319 319 318 318 319 319 319 319 319 319 320 319 319 319 318 318 317 319 317 317 317 318 319 318 317 318 318 319
315 316 316 316 316 316 316 316 316 315 315 319 314 312 321 316 318 319 319 318 317 317 318 317 318 319 320 319 318 317 317 317 317 319 321 319 317 317 317 317 316 318 317 319 318 318 318
316 316 315 315 315 315 315 315 316 316 317 318 317 317 314 323 319 319 317 317 318 318 319 318 318 319 318 317 317 317 316 316 317 317 318 318 316 314 317 320 321 318 317 317 317 316 316
316 316 316 316 315 315 314 314 314 316 316 317 316 317 317 318 319 318 317 317 317 318 317 317 317 317 318 317 319 317 317 314 316 316 317 317 317 316 321 319 318 316 317 317 316 315 314
315 316 315 315 316 316 316 316 317 316 314 316 316 316 318 315 320 317 318 318 320 320 319 317 317 316 316 317 315 317 318 316 316 316 313 314 316 314 320 319 319 316 316 313 313 317 315
315 316 316 316 316 316 317 316 316 316 316 315 319 316 318 317 318 317 318 319 318 318 319 317 316 316 315 317 312 315 318 315 316 318 318 315 313 315 315 317 316 316 315 312 317 318 315
313 315 316 316 316 316 316 316 316 317 316 316 317 316 316 317 317 317 317 318 317 317 320 316 316 316 315 316 314 315 316 316 316 315 317 317 317 316 316 318 320 315 314 315 315 315 314
313 313 313 313 314 315 316 316 316 316 316 315 315 316 316 316 317 317 317 316 316 316 316 316 316 315 315 317 314 314 314 312 313 314 314 315 316 319 317 318 316 316 315 314 314 314 313

GFSGBSN_850_thetae_006.txt.gz
Theta_e
310 310 310 309 309 310 313 314 314 313 313 313 313 313 313 313 314 315 316 316 316 316 315 313 314 317 318 320 319 318 318 319 318 319 318 318 319 320 320 320 320 320 320 320 320 320 319
310 310 310 310 310 310 312 314 314 315 314 314 313 314 314 315 316 316 316 314 314 314 314 315 317 318 320 319 319 319 319 319 319 320 319 319 319 319 321 321 321 320 320 320 320 320 319
310 310 311 311 311 310 311 314 315 315 315 315 315 315 316 316 316 316 316 316 315 315 315 316 318 320 320 318 319 320 320 319 319 319 318 317 319 321 321 323 320 320 321 322 321 319 318
310 311 311 312 312 311 311 313 315 315 315 315 316 316 317 317 318 318 318 317 317 316 316 317 319 321 319 318 319 319 320 320 319 319 318 317 319 319 322 320 322 321 322 320 319 319 318
312 312 312 313 313 312 312 311 314 315 315 316 316 317 318 318 318 318 317 317 317 317 317 318 321 322 320 319 319 319 319 319 320 320 320 319 319 320 321 323 322 321 320 320 321 320 319
313 314 314 313 314 313 313 312 312 315 315 316 316 318 318 318 318 317 317 317 316 318 317 318 319 320 319 319 318 318 319 319 320 320 321 320 321 322 321 320 320 320 321 321 322 321 320
313 315 315 314 313 313 314 314 313 312 315 316 316 317 318 317 317 317 317 318 320 321 319 319 319 318 318 318 318 317 316 319 320 321 321 319 323 320 319 319 319 319 321 321 321 320 321
312 316 315 315 314 313 314 314 315 312 312 315 316 317 318 317 316 317 318 325 321 323 319 317 317 316 316 317 318 317 316 319 319 320 319 320 323 319 318 319 319 318 320 321 320 320 321
310 315 315 315 314 315 314 314 314 315 313 312 315 317 317 318 317 318 324 316 318 318 325 317 317 317 316 317 317 316 315 317 318 319 318 318 321 318 318 319 319 318 321 320 320 321 322
309 312 315 315 314 315 314 313 314 314 315 314 312 315 316 317 317 321 323 314 315 317 327 320 319 318 317 316 318 317 315 316 320 318 317 320 318 317 318 319 318 319 320 320 321 322 322
309 310 314 315 314 314 314 312 313 314 315 314 314 312 315 315 323 322 322 316 318 321 338 320 319 317 317 317 317 318 316 318 319 318 318 321 319 316 318 318 318 319 319 321 322 324 323
309 309 311 313 315 314 313 312 312 314 314 315 314 313 314 317 318 321 317 317 320 336 332 321 319 319 320 318 318 318 318 317 316 317 317 317 316 317 317 317 319 320 322 323 324 323 329
310 310 310 312 314 314 313 312 312 313 314 314 315 315 314 315 325 318 317 322 333 332 321 321 321 319 319 319 319 318 319 320 321 322 322 321 319 318 317 319 321 321 322 329 331 333 331
310 310 310 310 312 314 314 312 312 311 315 315 316 315 317 314 314 318 319 327 332 323 322 320 319 319 320 319 320 319 320 321 320 320 322 323 324 319 318 319 320 321 321 329 327 326 325
309 309 310 309 309 314 314 313 312 311 315 315 319 323 317 319 315 315 327 330 326 323 320 320 319 320 322 320 318 320 320 319 318 318 321 323 323 320 319 318 318 321 323 321 322 322 325
308 308 310 309 309 312 314 314 313 312 315 317 325 325 317 317 316 321 330 322 321 318 318 319 321 319 321 320 320 321 321 318 319 318 318 321 322 321 320 320 320 320 321 323 325 329 325
308 308 308 309 309 311 314 314 313 312 316 319 326 327 316 315 320 326 329 322 318 316 317 320 320 320 319 320 321 321 320 319 318 318 318 321 322 323 321 323 322 321 321 323 322 324 326
307 307 308 308 308 310 314 314 314 314 314 318 324 327 316 318 327 324 323 320 316 318 318 319 320 320 321 321 322 321 320 320 317 317 320 320 320 323 322 321 320 319 321 321 324 324 323
307 307 307 308 309 311 314 314 314 314 315 321 323 323 319 324 331 326 320 319 319 319 319 320 320 320 320 321 322 321 321 319 318 317 319 318 322 322 321 322 320 321 320 320 321 321 323
308 307 307 308 310 313 314 314 315 314 314 317 322 324 323 323 323 323 322 322 321 319 319 319 320 320 321 321 321 321 320 319 318 318 317 316 319 320 323 322 321 321 320 319 320 321 321
309 309 309 311 314 315 315 315 315 315 314 320 320 321 319 328 323 323 322 321 322 322 320 319 320 320 320 320 320 319 320 320 319 317 318 318 321 320 319 319 318 318 318 318 319 319 319
312 312 312 313 315 316 316 316 315 315 315 321 322 322 320 319 319 321 317 320 320 320 318 320 319 319 319 321 320 321 320 320 320 319 320 319 319 318 318 318 318 317 318 318 317 317 318
314 314 315 315 316 316 316 316 316 315 315 321 319 316 324 318 319 321 321 319 319 318 319 318 318 320 318 319 319 318 318 318 318 320 320 320 318 315 318 316 315 317 316 318 318 318 318
315 315 316 316 316 316 316 316 316 316 316 320 320 320 315 323 322 320 318 318 319 318 319 319 318 317 318 319 318 318 317 316 316 316 317 317 314 312 316 314 319 317 317 316 317 317 317
314 315 315 316 315 315 315 314 315 315 316 319 318 320 318 313 321 319 319 318 318 318 318 318 317 319 319 318 317 313 319 315 314 316 317 317 314 318 318 319 317 316 316 316 316 316 315
315 315 316 315 316 315 315 315 315 315 314 315 321 317 321 315 319 318 318 318 321 322 321 319 319 318 318 318 314 316 318 316 316 315 315 314 312 321 321 319 318 316 314 314 315 317 316
315 315 315 316 315 315 316 316 316 316 316 316 320 318 319 318 318 319 319 321 318 319 321 319 318 317 317 315 315 314 316 314 315 315 315 317 313 316 317 317 316 315 315 315 318 318 314
315 315 315 315 316 316 316 316 316 316 316 316 317 318 317 319 318 319 319 319 318 318 322 318 318 318 315 314 313 316 315 317 316 315 316 315 316 316 313 317 318 315 317 316 315 315 314
313 314 315 315 315 316 316 316 316 316 316 316 316 317 317 317 318 319 318 318 318 318 317 317 317 317 316 317 312 313 313 313 310 315 312 314 315 316 315 316 314 314 314 315 313 314 312

GFSGBSN_850_thetae_009.txt.gz
Theta_e
310 309 310 310 310 311 312 313 314 314 313 313 313 313 313 313 313 314 315 316 316 316 313 313 314 315 319 319 319 318 319 319 319 319 319 319 319 320 318 319 320 318 318 319 319 319 319
310 310 311 311 310 310 312 314 315 315 315 314 313 313 313 314 315 316 316 316 316 316 315 315 316 318 319 319 319 319 319 319 319 318 317 318 319 320 320 320 319 320 320 320 320 319 319
310 311 312 312 311 311 311 314 315 315 315 315 315 315 315 316 316 315 314 314 314 314 315 317 317 320 321 318 319 319 320 319 319 318 318 317 319 319 321 321 319 320 318 318 319 319 316
311 312 312 313 311 311 311 313 315 315 315 316 316 316 316 317 317 316 315 316 316 316 316 317 318 321 318 319 319 319 319 319 319 319 318 317 318 319 320 320 320 320 319 317 318 317 318
313 313 313 313 312 313 312 312 315 315 315 316 317 317 318 318 318 317 317 317 317 316 316 317 320 322 319 319 319 319 319 318 320 320 320 321 319 319 320 319 318 316 316 318 319 317 317
314 314 314 313 312 313 313 312 314 315 316 316 318 318 318 318 317 317 317 316 316 316 318 319 318 321 319 318 317 318 317 318 319 320 320 321 320 318 314 313 315 317 317 318 318 317 316
315 315 314 313 313 313 314 314 312 315 315 316 317 318 318 317 317 317 317 320 319 319 320 317 317 318 317 317 318 317 316 318 320 320 319 318 316 315 316 317 318 316 316 317 317 317 316
314 315 315 314 314 314 314 314 313 312 315 316 316 317 317 316 316 317 318 325 323 323 321 317 317 316 316 317 317 316 314 317 318 317 318 316 318 317 317 317 317 316 318 318 318 318 318
312 315 315 314 315 314 313 314 314 313 312 315 316 317 317 317 317 318 320 317 319 318 326 317 317 317 316 317 316 316 314 316 317 317 315 317 317 317 317 317 317 315 318 317 318 318 318
310 314 315 314 314 314 313 313 314 315 314 313 314 316 317 317 316 320 324 314 315 318 328 318 319 318 317 317 318 317 316 316 319 317 315 318 317 316 316 318 316 316 318 318 318 319 320
309 311 313 314 314 314 312 312 313 314 315 314 312 314 316 316 323 321 323 315 317 318 326 320 318 317 317 317 317 317 317 317 316 315 316 319 315 314 317 316 316 317 318 318 319 319 320
309 309 310 313 314 314 313 312 312 314 315 314 314 313 315 315 318 322 320 316 318 328 328 320 318 319 319 318 318 318 319 318 317 317 316 315 316 316 315 316 317 318 319 319 321 319 320
310 309 310 310 313 314 313 312 311 314 314 315 315 316 313 317 321 318 316 318 327 323 322 320 320 319 318 319 319 318 319 317 317 319 320 320 316 316 318 317 318 317 318 318 319 320 321
310 310 310 310 310 314 314 312 311 314 314 315 318 317 316 313 317 318 318 325 330 322 321 319 319 318 320 317 319 318 319 318 316 317 319 321 320 318 318 318 318 317 319 317 322 321 319
309 310 310 310 309 313 314 313 312 315 315 316 323 320 315 316 315 317 327 324 319 321 319 319 319 320 320 319 317 319 318 318 317 316 319 321 322 319 318 317 317 318 319 319 318 317 316
309 309 310 310 309 310 314 314 313 313 316 318 325 326 316 317 315 325 326 318 319 317 317 319 321 319 321 319 320 319 319 318 318 317 317 319 321 320 320 319 318 318 318 318 314 319 323
308 308 309 309 309 309 313 314 314 314 317 324 327 327 316 319 320 327 320 318 317 316 317 319 320 321 320 321 321 320 320 318 317 317 317 319 318 319 319 321 320 318 318 319 321 318 323
308 308 308 309 309 309 312 314 314 315 318 323 325 324 316 325 327 326 318 319 317 318 318 319 320 320 321 321 321 321 321 320 317 317 320 317 317 315 319 318 318 317 319 319 319 322 316
308 308 308 309 309 309 311 314 314 314 316 321 323 323 321 323 318 315 319 319 319 320 319 320 320 320 319 321 321 321 320 318 317 318 317 316 314 314 317 318 317 319 318 318 317 311 317
308 307 307 308 308 309 312 314 315 315 315 320 322 311 322 323 323 320 320 320 320 319 319 319 319 319 320 320 319 319 319 319 318 318 317 316 317 315 316 318 318 318 317 316 316 310 316
308 308 307 307 310 311 314 315 315 315 315 322 320 320 319 316 320 321 320 321 321 321 319 319 320 319 319 316 317 319 320 319 318 317 317 316 315 317 317 318 318 317 317 316 317 315 316
310 308 308 308 309 312 315 315 315 315 316 321 321 323 320 318 318 319 317 319 320 318 318 320 319 320 318 318 320 320 318 318 318 318 316 317 313 316 316 317 318 316 315 315 314 314 315
311 310 310 310 312 314 316 316 316 315 319 321 318 318 322 318 318 314 316 319 319 318 318 318 318 318 314 319 319 318 318 318 317 316 314 314 311 309 319 314 313 310 312 314 315 313 314
313 313 312 312 314 315 316 316 316 316 316 322 320 321 316 309 316 317 319 318 318 318 319 319 317 317 319 319 318 317 316 314 314 315 315 309 306 308 317 310 317 313 313 313 313 313 313
313 314 314 314 315 316 316 315 315 316 316 317 318 320 316 307 319 320 319 319 318 318 319 318 318 318 318 317 308 309 307 306 308 313 313 314 306 311 315 314 314 314 314 314 312 312 315
314 314 315 315 315 315 315 315 314 314 315 316 318 319 321 315 311 318 318 318 313 312 317 319 319 318 317 313 310 310 306 310 312 313 313 310 308 310 309 311 312 310 312 315 314 314 313
314 314 315 315 315 315 315 315 315 316 316 315 318 319 319 319 318 319 319 315 319 319 309 318 318 318 317 307 311 313 308 312 310 307 306 306 306 309 305 311 309 310 312 315 312 315 313
314 314 315 315 315 315 316 316 316 316 316 317 316 317 317 318 318 318 319 318 319 319 308 317 314 314 309 309 310 310 311 307 310 311 309 307 306 311 305 314 311 312 311 309 311 312 311
313 314 315 315 315 315 316 315 316 316 316 316 316 316 317 317 317 318 318 317 318 318 318 317 316 316 314 306 305 306 310 308 309 314 311 311 309 307 309 308 311 311 311 311 311 311 312

GFSGBSN_850_thetae_015.txt.gz
Theta_e
310 311 311 310 310 311 312 314 314 313 313 312 312 312 312 312 312 313 314 315 312 312 313 313 317 319 318 318 318 319 318 318 318 317 318 319 319 318 317 317 317 316 316 317 318 318 318
311 312 311 310 310 311 312 314 314 314 313 312 312 312 312 312 313 315 315 315 314 313 313 317 319 319 318 317 318 319 319 318 318 315 316 319 318 319 319 319 316 318 317 317 318 318 317
312 313 311 311 311 312 313 314 314 314 314 313 313 314 314 315 315 315 315 315 314 315 318 319 320 318 318 318 318 319 319 319 317 319 319 318 319 319 319 319 319 318 317 314 317 317 316
313 312 312 312 312 312 313 314 315 315 315 315 315 315 315 314 314 314 314 314 316 317 318 318 320 318 318 318 318 318 318 318 318 318 319 319 320 319 319 318 318 314 312 314 314 315 315
314 313 312 313 313 312 313 314 315 316 316 316 317 316 316 315 315 315 315 315 315 316 317 318 319 320 318 318 317 317 316 315 317 319 320 319 320 318 317 311 311 310 313 314 315 314 315
314 313 313 313 312 313 312 314 315 316 317 317 317 317 317 316 316 316 316 315 316 317 318 319 319 318 317 317 317 316 315 317 319 319 320 320 319 311 309 310 312 314 313 313 315 314 313
314 314 314 312 312 312 312 313 315 316 317 317 317 317 317 316 316 320 320 318 319 318 316 316 316 316 315 316 317 316 313 316 317 317 315 315 312 313 314 313 314 314 315 316 315 314 315
314 314 314 312 311 311 313 312 313 315 316 317 317 316 316 316 317 320 321 322 321 320 317 316 315 315 315 316 316 316 314 317 316 314 313 314 315 314 313 314 314 315 316 315 314 314 315
314 314 314 313 311 311 312 314 312 313 315 316 317 316 316 316 317 316 316 320 318 318 319 316 316 317 316 316 316 317 316 316 315 313 314 314 316 314 315 313 313 313 316 315 315 314 315
313 314 314 313 312 311 311 313 314 313 314 315 316 316 316 316 316 317 315 316 317 319 314 316 317 317 317 316 316 316 316 316 314 314 314 315 313 313 314 314 313 314 314 315 315 316 318
311 313 314 314 312 311 311 312 314 314 313 313 315 315 316 316 316 318 316 316 316 320 316 317 316 317 317 316 316 317 317 316 314 315 314 317 313 313 314 314 314 315 314 314 317 316 316
309 310 312 314 313 312 312 313 314 314 314 311 313 315 316 316 320 318 319 315 318 320 321 317 317 317 317 317 316 317 317 317 317 316 315 314 314 314 314 314 316 314 316 315 315 315 317
309 309 309 312 314 313 312 314 314 314 315 314 313 314 315 315 318 317 319 316 319 318 320 318 317 316 316 315 315 316 315 314 314 313 316 317 316 315 316 316 315 314 315 315 316 317 318
309 309 309 309 313 313 313 313 314 314 316 316 316 313 314 315 318 317 316 319 321 319 318 317 316 317 317 315 315 315 315 315 314 314 316 318 317 317 315 316 317 316 316 314 317 319 318
309 309 310 310 309 314 313 313 314 315 316 316 315 316 314 315 317 316 324 315 314 317 316 316 317 318 317 318 316 315 315 315 315 314 317 318 318 316 317 317 316 317 316 315 314 313 314
309 309 309 310 310 311 314 314 314 316 319 321 318 316 315 315 317 324 315 315 316 315 316 318 318 318 318 318 319 316 316 316 316 315 315 317 319 317 316 317 316 316 315 317 312 313 321
309 308 308 309 310 309 314 314 315 320 318 324 326 316 319 318 323 321 312 311 314 316 317 318 319 319 319 320 319 318 317 316 316 315 316 315 315 316 314 316 317 316 316 315 316 314 318
309 308 308 309 309 310 311 315 315 317 323 326 325 314 323 325 321 314 313 315 316 317 318 318 318 318 319 318 319 319 319 317 316 317 317 315 312 312 316 313 314 315 315 314 315 318 312
308 308 308 308 309 310 310 314 315 316 322 321 320 321 322 324 312 307 316 317 318 317 317 317 318 317 317 318 318 318 318 317 316 316 316 314 311 311 312 312 312 316 315 314 312 308 315
308 308 308 308 308 310 310 312 315 316 320 321 319 311 321 321 318 314 316 317 318 318 318 318 317 317 317 316 315 317 318 317 317 317 316 315 312 311 313 312 313 315 315 314 313 309 313
308 308 308 308 308 309 309 311 314 315 318 320 318 315 318 311 316 317 317 318 318 318 317 317 317 316 317 315 316 319 317 316 316 316 315 312 313 313 313 313 313 314 315 315 315 313 315
308 308 307 307 308 309 309 311 314 315 318 320 319 318 317 316 318 315 312 317 319 316 317 317 316 316 316 316 316 318 317 316 316 315 314 312 311 313 313 313 314 315 314 313 313 313 312
308 308 307 307 308 308 309 311 314 315 317 318 320 320 317 313 312 309 310 316 317 317 317 317 316 314 312 317 318 318 317 317 316 314 311 312 307 310 310 310 309 308 310 312 312 311 311
309 309 308 308 308 309 310 312 315 315 318 316 318 317 315 305 306 310 317 316 316 316 316 316 316 314 316 318 318 316 314 311 310 310 314 306 305 305 311 311 313 311 310 310 310 310 309
310 310 309 309 309 310 311 313 315 316 317 317 317 317 315 303 309 317 317 317 316 316 317 316 317 316 318 317 305 305 305 303 304 311 311 307 305 309 313 312 310 311 310 312 312 311 311
311 311 311 311 311 312 313 314 315 316 316 316 316 316 315 315 309 317 316 316 308 308 312 317 317 317 317 307 302 304 305 306 310 310 308 305 302 303 309 313 313 308 307 312 312 312 311
312 312 312 312 313 313 314 315 315 315 315 316 316 316 316 316 317 317 316 311 316 314 305 314 317 316 315 306 306 301 305 308 309 304 304 304 306 307 307 311 306 305 308 309 308 308 312
312 312 313 314 314 314 315 315 315 314 314 314 315 316 316 316 316 317 317 318 317 317 307 315 313 311 306 305 302 302 297 304 307 307 306 306 305 304 304 307 309 308 310 310 309 310 309
312 313 313 313 314 314 315 315 315 315 315 316 316 316 316 316 316 316 316 317 317 317 317 315 315 313 314 306 305 301 306 301 303 312 307 311 308 306 306 308 308 310 310 310 309 309 309

GFSGBSN_850_thetae_021.txt.gz
Theta_e
311 311 310 310 311 311 312 313 313 313 313 312 312 312 312 312 312 312 313 312 312 314 314 318 317 317 317 318 317 318 318 317 317 318 318 318 318 318 317 315 316 316 315 315 315 315 315
312 311 311 311 312 312 312 313 313 313 312 312 312 312 312 312 312 313 313 312 313 313 317 319 317 316 317 317 317 317 318 317 318 318 318 318 319 319 318 316 318 316 315 315 315 315 314
313 311 312 312 312 312 313 314 314 313 312 311 311 311 311 312 313 314 312 312 313 317 318 318 317 317 317 317 316 316 317 316 318 319 319 319 318 318 318 317 317 315 316 314 314 313 314
313 312 312 312 312 312 314 314 314 314 313 312 312 312 313 314 314 314 313 313 317 317 319 319 317 317 317 316 316 315 315 316 318 319 319 319 318 317 315 316 313 314 314 316 314 315 315
313 313 312 311 312 313 313 314 315 315 315 315 314 314 314 314 314 314 314 316 317 318 318 318 317 317 317 316 316 314 316 318 319 319 319 319 318 315 313 313 314 313 315 315 316 313 315
313 313 311 310 312 312 313 315 316 316 316 316 315 315 315 315 315 315 316 316 317 318 318 317 317 315 315 316 315 313 317 318 318 318 318 318 315 314 313 315 315 316 315 315 316 315 316
314 313 311 311 311 312 313 315 316 316 316 316 316 316 316 319 316 315 316 318 317 315 315 314 315 315 315 316 316 315 317 317 316 316 316 314 316 315 313 313 313 313 314 316 314 313 316
314 314 312 311 311 312 312 314 316 316 316 316 316 316 317 321 317 317 317 317 316 316 315 315 315 315 316 316 317 316 317 316 315 315 313 315 315 313 312 312 313 314 315 314 314 313 316
314 314 312 311 311 312 312 313 315 316 316 316 316 316 318 316 319 318 317 317 318 317 315 316 316 316 316 316 316 317 316 316 313 314 313 316 313 312 313 314 316 315 315 315 315 314 314
313 314 313 311 311 312 313 313 313 315 316 316 315 315 316 317 316 318 317 317 318 319 314 315 316 316 316 315 315 316 315 315 314 313 313 314 311 313 315 315 314 317 313 315 315 318 320
312 313 314 312 312 312 313 314 313 313 315 316 315 315 315 316 316 317 317 316 316 324 316 315 315 316 316 315 314 316 316 317 315 313 315 314 313 315 317 314 313 317 314 315 316 318 318
310 311 313 313 312 312 313 313 314 313 313 315 315 315 315 315 315 315 314 314 321 315 316 316 315 315 316 315 315 316 316 316 315 315 315 314 313 313 314 313 314 314 316 314 315 317 322
309 309 310 313 313 313 313 313 314 315 311 313 314 315 315 316 316 316 314 318 318 317 316 316 315 315 313 314 315 314 314 315 316 315 318 316 316 315 314 317 316 317 316 319 323 324 323
309 309 309 310 313 313 313 314 313 315 315 312 313 314 315 315 317 317 314 319 318 316 316 315 314 314 315 314 315 315 315 316 315 314 317 318 317 317 315 316 316 317 317 320 318 321 321
309 309 309 309 310 313 313 315 314 317 316 314 313 314 314 314 315 316 320 317 316 315 315 315 316 317 316 317 315 315 315 315 315 315 318 319 317 315 315 315 315 317 320 315 317 314 319
309 309 309 309 309 312 313 315 315 318 319 316 315 313 317 317 316 317 316 314 314 314 315 316 317 316 317 318 317 316 316 315 315 314 313 316 320 315 315 315 314 316 314 319 318 321 320
309 309 309 309 309 309 313 314 318 317 322 321 317 318 319 319 323 319 315 312 313 316 316 317 317 318 317 318 316 316 316 315 314 315 314 314 316 315 313 316 317 317 318 316 316 317 322
309 309 309 308 309 309 311 314 316 320 322 325 318 319 323 323 316 309 313 313 316 316 317 316 316 317 317 317 318 318 318 316 314 315 317 313 313 316 315 313 313 314 315 314 317 316 316
309 309 308 308 308 309 310 313 315 320 323 323 321 322 322 321 314 309 314 316 316 316 315 316 316 316 315 316 318 317 316 315 316 315 316 314 314 313 310 313 312 316 315 312 311 311 317
310 310 309 308 308 309 310 311 314 317 321 319 319 316 319 317 313 314 315 316 317 317 315 316 315 315 315 315 315 317 317 316 315 315 314 313 312 312 313 311 311 314 314 313 315 317 315
309 309 309 308 308 308 309 310 314 315 320 319 316 315 316 312 315 313 314 315 317 316 316 316 316 315 315 315 316 317 316 315 314 314 314 313 316 313 313 313 312 313 314 314 315 315 317
308 308 309 308 308 308 309 310 312 315 318 317 317 318 315 313 314 314 310 316 317 315 315 316 316 315 314 315 314 316 316 314 315 314 313 311 314 312 313 311 311 312 312 312 313 314 314
308 308 308 308 308 308 309 309 311 314 316 318 317 317 318 308 308 311 311 315 316 315 315 315 315 313 311 315 315 316 315 314 313 314 312 312 312 311 313 308 309 312 309 311 312 312 313
308 308 308 308 307 308 308 309 311 314 315 316 317 317 316 308 305 310 314 315 314 314 315 314 314 313 314 316 316 315 313 309 309 310 311 307 308 308 314 308 315 312 310 311 311 311 310
309 308 308 308 307 307 308 309 312 314 315 317 317 315 313 305 308 314 314 313 314 315 314 314 315 315 316 316 310 309 308 304 305 307 308 307 307 310 313 312 312 313 311 311 311 312 309
310 308 308 308 307 308 308 310 312 315 317 317 316 315 313 313 310 315 314 314 310 308 311 315 315 315 315 306 308 311 311 308 312 309 305 305 303 311 311 314 315 312 308 311 310 312 308
311 310 309 309 308 308 309 310 312 314 315 316 315 315 314 313 314 315 314 314 314 312 308 312 315 314 314 306 309 311 314 307 312 307 303 306 307 311 312 311 312 309 308 308 312 313 311
311 310 310 309 309 310 311 312 313 314 315 315 315 315 314 313 314 316 315 314 314 314 311 312 313 311 306 309 310 308 308 309 309 308 307 309 308 307 306 310 311 306 309 311 311 309 310
311 311 310 311 311 311 312 313 313 314 314 314 314 315 314 314 314 316 316 316 316 316 315 314 312 312 312 307 304 303 306 301 305 314 305 311 310 311 310 311 307 307 309 309 308 309 308

GFSGBSN_850_thetae_024.txt.gz
Theta_e
310 311 311 311 311 311 311 312 313 313 313 312 312 312 312 311 311 311 312 313 312 314 315 318 316 315 318 319 318 318 317 318 318 318 318 319 318 319 319 318 319 320 319 319 317 316 318
312 311 311 312 312 312 312 313 313 313 313 312 312 312 312 312 311 312 313 312 313 315 318 317 317 317 318 318 316 316 318 317 318 319 318 319 319 319 319 320 321 319 319 319 318 318 317
313 312 312 312 311 312 313 313 313 313 312 311 312 312 312 311 312 313 312 313 315 318 318 317 317 317 318 317 316 315 317 317 318 318 319 319 319 320 321 322 319 319 320 321 319 319 320
313 313 312 311 312 312 313 314 314 313 312 311 311 311 311 312 313 312 313 314 317 318 318 317 317 317 318 316 316 314 315 318 319 319 319 317 318 318 321 317 318 320 320 320 320 320 319
313 313 311 311 312 313 314 314 314 314 313 313 313 313 314 314 313 313 314 316 317 318 318 317 317 318 317 316 316 314 316 318 319 319 319 317 317 318 317 320 320 319 317 318 319 318 320
313 313 311 311 312 313 314 315 316 316 315 315 314 314 314 314 313 314 316 316 318 318 317 317 316 317 316 316 315 315 318 318 319 318 319 319 319 321 320 319 317 318 318 319 318 319 319
314 313 311 311 312 313 314 316 316 316 316 315 315 315 315 315 315 315 316 316 317 317 316 316 316 316 316 316 316 316 316 316 317 319 321 318 321 321 319 319 318 318 318 319 318 318 320
314 313 311 311 312 312 314 315 316 316 316 316 316 318 319 315 315 316 318 319 316 316 316 315 315 316 317 317 317 317 317 318 319 320 319 320 320 318 317 317 318 319 319 319 319 318 320
314 313 312 311 312 313 313 315 316 316 316 316 317 317 319 319 318 318 317 317 315 315 317 317 316 316 316 317 317 317 317 317 318 319 319 319 317 316 317 320 320 320 320 320 320 320 320
314 314 313 312 312 313 313 314 315 316 316 316 317 318 317 317 318 317 317 317 316 317 319 317 317 317 316 316 318 316 315 316 317 318 318 318 316 318 319 319 320 320 318 320 320 322 322
313 313 313 312 312 313 313 313 314 315 316 315 315 316 316 317 318 318 316 317 318 323 321 318 318 316 317 317 316 318 316 318 318 318 319 316 318 319 320 319 319 321 319 320 321 322 322
311 312 313 313 312 313 313 313 313 314 315 315 315 315 315 316 316 317 316 315 321 324 320 319 318 318 319 319 318 318 318 317 317 320 319 318 316 319 320 318 318 319 320 320 321 323 325
309 310 311 313 313 313 313 314 314 312 313 315 315 315 315 315 316 315 314 319 322 321 319 318 319 319 319 319 319 319 320 320 320 321 321 319 319 319 319 320 320 321 322 323 326 326 325
308 308 309 311 313 313 314 314 314 314 311 313 314 315 315 316 315 314 314 324 320 320 320 317 318 319 319 319 319 319 320 320 320 319 320 321 322 320 319 319 321 321 322 325 323 322 323
308 308 308 309 312 313 315 314 316 316 314 313 314 314 315 316 316 315 321 326 323 320 319 319 319 320 320 320 320 320 320 320 319 319 321 321 320 319 318 318 319 322 323 320 322 320 324
308 309 309 309 310 313 314 315 317 318 315 314 315 315 315 314 315 316 325 319 319 317 318 319 320 320 321 321 321 320 320 318 319 317 318 320 322 319 317 318 319 320 319 324 322 330 321
309 309 309 309 309 312 314 317 316 320 316 315 315 318 318 316 317 322 325 320 318 317 318 320 321 321 321 321 321 321 320 318 318 318 317 317 319 319 317 319 320 321 321 320 321 322 324
309 309 308 308 309 310 313 315 317 320 321 323 317 322 319 322 322 318 321 318 317 319 319 320 320 321 322 321 322 322 321 320 316 318 318 318 319 317 315 316 317 318 318 318 321 320 320
309 309 308 308 308 309 311 314 319 319 324 323 323 323 323 321 327 323 319 319 318 319 319 320 321 320 320 321 322 321 320 317 317 318 319 318 318 315 316 318 318 319 318 317 316 317 318
309 309 309 308 308 309 310 314 316 321 322 319 321 329 321 319 317 321 321 320 320 318 318 319 319 319 320 321 320 321 321 318 317 317 314 316 318 315 314 314 314 314 314 315 317 320 317
310 310 309 308 308 308 310 311 315 320 320 317 318 322 320 326 321 320 320 320 321 320 319 319 320 320 321 322 320 321 320 319 317 315 317 318 317 317 316 316 315 316 316 315 316 317 318
309 310 309 309 308 308 309 310 314 315 319 317 321 322 317 318 318 320 318 321 320 319 319 320 320 319 318 319 317 319 318 318 317 317 318 317 319 316 317 315 315 315 315 315 316 316 316
309 309 309 309 308 308 309 310 312 314 316 317 317 318 321 313 318 322 321 320 319 319 318 318 319 320 320 318 317 318 317 317 317 317 318 318 319 317 321 313 314 318 315 314 315 315 315
308 308 308 308 308 308 309 309 310 314 316 315 316 317 318 321 319 320 318 319 319 318 320 317 318 318 316 316 316 315 313 314 315 315 315 314 316 313 319 316 322 315 314 314 314 314 314
309 308 308 308 308 308 308 309 311 313 315 315 317 315 315 315 318 317 318 318 317 317 318 318 316 315 316 317 320 317 316 314 313 312 313 314 315 315 317 316 315 314 313 314 313 314 314
310 308 308 308 308 307 308 309 311 314 315 315 315 314 312 316 320 316 318 318 320 320 319 316 314 315 315 317 319 320 319 314 315 314 309 311 312 318 312 317 316 314 313 312 312 315 313
311 309 308 308 308 307 308 309 311 314 316 316 315 314 313 312 314 316 319 319 317 318 321 317 316 315 315 312 314 317 321 313 316 316 314 311 312 315 314 316 315 314 311 310 315 316 311
311 310 309 308 308 308 309 310 311 313 315 315 315 314 313 313 315 316 315 316 316 318 322 316 318 316 313 316 317 315 315 317 315 314 314 316 316 314 312 314 315 310 311 314 313 312 311
311 310 310 309 309 309 309 311 312 313 314 314 315 314 314 313 315 315 315 314 315 315 317 316 318 316 317 317 311 311 315 309 317 317 312 315 314 315 314 315 313 312 311 311 312 312 310

GFSGBSN_850_thetae_027.txt.gz
Theta_e
310 311 311 311 311 312 312 312 313 313 313 313 312 312 312 311 311 311 311 313 312 314 315 317 315 315 317 321 319 318 317 318 319 320 320 320 319 319 320 319 319 319 318 317 317 318 319
311 312 311 312 312 312 312 313 313 313 313 313 312 312 312 311 311 311 312 312 314 314 318 317 315 316 318 321 318 318 317 318 320 319 319 319 319 319 319 320 321 320 320 321 320 320 319
312 312 312 312 311 312 313 313 313 313 312 312 312 312 312 311 311 312 312 313 314 318 318 317 316 316 321 319 317 317 317 318 319 320 319 319 319 319 320 322 320 320 321 321 321 321 322
313 312 312 311 311 312 313 314 314 313 312 311 312 312 312 311 312 312 313 314 317 318 317 317 317 317 321 317 318 317 317 318 319 320 320 319 320 321 322 321 320 321 322 323 322 321 321
313 313 312 311 312 312 313 314 314 313 312 311 311 311 311 312 312 312 313 317 317 318 317 317 317 322 319 316 317 316 317 319 320 320 319 319 321 321 322 322 322 321 322 320 321 320 322
313 313 311 311 312 313 314 315 315 315 314 313 312 313 313 312 312 313 316 316 318 318 318 317 319 319 316 317 316 316 317 319 321 321 320 320 321 323 322 322 322 320 319 319 320 321 320
313 313 311 311 312 313 314 315 316 316 315 314 314 314 313 313 313 316 316 316 318 320 318 319 318 318 316 316 316 318 318 319 320 321 323 321 323 322 321 320 319 319 319 320 320 320 321
314 313 312 311 312 312 314 315 316 316 315 315 315 315 314 314 315 316 317 323 323 319 317 317 317 318 317 317 318 319 319 320 321 322 321 321 322 321 319 319 319 320 321 322 321 320 320
314 313 312 312 312 313 313 315 316 316 316 316 319 319 316 315 315 317 324 323 316 318 318 318 318 318 318 318 319 319 319 319 320 320 319 322 321 318 319 320 321 322 322 323 322 322 322
314 314 313 312 312 313 313 315 316 316 316 318 318 319 319 317 319 321 324 317 315 317 322 318 319 318 318 318 319 318 318 319 319 319 320 320 319 320 320 321 321 323 321 321 322 322 324
313 313 313 312 313 313 313 314 315 316 316 316 318 317 317 319 321 320 319 316 315 321 323 319 319 318 318 320 320 319 319 319 319 320 321 320 320 321 322 321 321 323 322 322 322 324 323
312 312 313 313 313 313 313 313 315 316 315 315 316 316 316 317 320 319 316 317 318 329 323 320 319 320 321 320 320 320 320 319 320 320 320 320 319 321 322 321 321 321 323 323 324 325 326
310 310 312 313 313 313 313 313 313 315 315 315 315 315 316 317 322 317 316 321 322 326 320 320 321 321 321 321 321 322 322 323 324 323 323 321 321 321 321 322 323 323 324 327 328 328 327
309 308 310 312 313 314 314 314 314 313 314 315 315 315 315 315 315 315 315 323 325 323 321 320 320 321 322 322 321 322 322 323 322 322 322 323 325 322 320 321 322 323 323 327 326 326 325
308 308 308 310 313 314 315 314 315 312 313 314 314 315 316 316 315 314 321 325 322 320 321 320 320 321 321 321 322 322 323 322 321 322 324 323 323 321 320 321 322 324 325 322 324 325 324
308 308 308 309 312 314 315 314 316 314 312 313 319 319 321 317 315 316 324 322 322 320 320 320 322 322 323 322 323 323 323 321 321 319 320 321 325 321 319 320 321 321 321 325 325 328 322
308 308 308 309 310 313 316 315 318 315 314 314 320 319 320 314 315 319 325 323 321 319 320 322 322 322 323 323 323 323 322 320 320 320 319 318 320 321 318 320 319 321 322 322 322 322 324
308 308 308 309 309 312 315 317 319 317 315 317 321 323 317 316 320 321 324 321 319 320 321 322 323 323 323 323 323 323 323 323 319 319 320 318 319 320 317 318 319 320 321 320 322 321 321
308 309 308 308 309 310 314 317 317 320 321 324 322 323 319 320 327 324 322 321 321 321 322 322 323 323 323 323 324 323 322 320 319 320 321 319 321 320 319 320 320 320 319 318 318 318 318
309 309 308 308 308 310 313 315 320 320 324 323 323 329 322 323 323 322 323 322 322 321 321 322 322 322 323 323 323 324 323 320 320 320 315 318 319 318 319 318 317 317 316 316 317 320 320
309 309 309 308 308 309 310 314 320 322 322 320 323 326 324 326 324 323 323 323 323 322 321 321 322 322 323 323 323 323 322 321 319 317 318 320 321 318 318 317 316 316 316 317 317 317 319
309 309 309 309 308 308 310 312 315 320 319 322 321 324 323 324 323 323 320 323 322 321 321 321 322 322 321 323 320 322 320 319 319 319 319 319 321 319 318 316 315 315 315 316 316 317 317
309 310 310 309 308 308 309 310 314 316 318 322 318 321 324 320 323 324 323 322 322 321 321 320 321 321 322 319 319 319 319 318 318 319 320 320 321 319 322 317 317 321 318 315 316 316 316
309 309 309 309 308 308 309 310 312 315 316 320 320 322 325 325 324 323 321 321 321 321 321 320 320 321 320 318 318 317 317 317 318 319 319 320 319 317 320 317 323 316 315 315 315 315 315
309 309 309 309 308 308 308 309 311 314 315 315 317 320 321 324 322 321 321 321 320 320 320 320 319 319 319 319 321 320 317 313 316 315 316 318 319 318 320 318 315 315 316 315 315 315 315
309 308 308 308 308 308 308 309 311 313 315 316 316 315 318 318 325 321 322 321 324 324 322 319 317 318 320 321 320 320 321 316 317 317 313 315 317 320 316 319 318 315 315 313 313 316 315
310 308 308 308 308 308 308 309 311 314 315 315 314 313 318 322 320 320 322 323 322 322 324 321 319 319 320 318 319 319 322 316 316 318 314 313 315 318 317 318 316 314 313 313 316 317 314
311 309 308 308 308 308 308 309 310 313 315 316 315 314 318 319 319 319 318 320 320 320 325 321 321 321 321 316 317 320 319 319 318 316 317 316 317 315 316 317 316 313 313 316 315 314 313
312 310 308 308 308 308 308 309 310 311 314 314 318 314 313 319 321 317 317 318 319 320 320 320 319 321 319 322 317 317 322 317 318 319 315 316 316 317 317 318 315 313 314 313 313 312 309

GFSGBSN_850_thetae_030.txt.gz
Theta_e
309 310 311 311 311 312 312 312 313 313 313 313 313 312 312 311 311 310 311 310 313 312 314 316 315 315 317 321 321 318 318 319 319 320 322 321 320 320 320 320 319 318 317 317 317 318 319
309 310 312 312 312 312 312 313 313 313 313 313 313 312 312 311 311 311 311 312 312 314 315 317 315 316 317 322 318 318 318 319 320 320 320 320 320 319 319 319 320 319 319 319 319 320 319
310 311 312 312 312 312 312 313 313 313 313 312 312 312 312 311 311 311 312 312 314 315 317 316 315 316 320 321 318 318 318 319 319 320 321 320 320 319 320 322 320 320 321 321 321 321 321
310 312 312 312 311 312 313 314 314 313 312 312 312 312 312 311 311 312 312 314 314 317 317 316 315 315 323 319 318 317 317 318 319 320 320 319 320 322 322 321 320 320 322 322 322 322 322
311 313 313 311 311 312 313 314 314 313 312 311 311 312 312 311 312 312 313 314 317 318 317 317 316 317 323 317 318 317 317 319 319 320 320 319 321 320 321 321 321 321 322 323 322 321 322
312 313 313 311 311 313 314 314 315 315 313 311 311 311 311 312 312 313 314 316 317 317 317 317 321 322 318 318 317 317 317 320 320 321 320 321 322 322 322 322 323 321 320 319 320 321 320
313 313 312 311 312 313 314 315 315 315 315 313 312 312 313 312 312 313 316 317 319 320 320 320 318 319 317 316 316 318 318 320 321 322 323 321 322 323 321 320 319 319 319 320 321 321 320
313 314 312 311 312 313 314 315 316 315 315 314 314 313 313 313 313 316 317 324 325 322 320 318 318 318 317 318 318 318 319 321 321 322 323 321 321 321 320 320 319 320 321 322 322 321 320
313 314 312 311 312 313 313 315 316 316 316 315 315 314 314 314 315 316 323 327 324 319 319 318 319 318 319 320 320 319 319 320 321 322 320 322 321 319 319 320 321 321 321 324 322 322 322
313 314 313 312 312 313 313 315 316 316 316 318 319 316 315 315 317 321 326 319 320 319 321 317 318 318 318 319 319 319 319 320 320 320 320 321 319 320 320 321 321 322 323 322 321 322 322
313 314 313 312 312 313 313 315 315 316 316 318 318 320 318 318 326 322 325 317 316 319 327 319 319 318 318 320 320 319 318 319 320 320 321 321 320 321 322 322 321 323 322 322 322 323 323
312 313 313 312 313 313 313 314 315 316 316 317 317 317 318 319 324 325 320 317 315 329 328 320 319 321 320 320 321 320 319 320 321 319 321 321 320 322 322 321 321 321 323 324 324 324 328
312 312 313 313 313 313 313 313 314 316 315 315 316 316 322 323 326 318 316 319 322 329 321 320 320 321 322 321 322 322 322 323 324 323 323 322 322 322 321 322 323 323 323 331 332 332 331
311 311 311 312 313 313 314 313 313 315 315 315 315 315 316 318 321 317 317 325 327 324 321 321 321 322 322 322 322 322 323 323 322 324 323 323 325 323 321 322 322 323 322 332 329 332 330
309 309 310 311 313 314 314 314 313 313 315 315 315 315 318 315 315 316 325 326 325 321 322 321 321 321 322 322 323 323 323 322 321 323 325 323 324 321 320 320 321 322 326 321 322 327 329
309 308 308 310 312 314 315 314 315 313 313 314 317 316 322 315 314 315 327 325 324 322 320 321 321 322 322 322 322 323 323 322 321 320 320 321 325 321 319 319 322 321 320 324 329 329 325
308 308 308 309 311 314 315 315 316 313 312 314 321 319 323 315 315 322 325 326 322 320 321 321 322 322 323 322 323 324 323 321 321 320 320 319 322 322 319 320 319 321 322 322 321 323 326
308 308 308 308 310 313 315 316 318 314 314 317 321 322 322 314 320 321 326 323 319 321 322 323 323 322 323 323 323 323 323 324 320 320 321 318 320 323 319 318 319 319 320 320 328 322 325
308 308 308 308 309 312 314 317 319 315 314 323 321 326 316 315 326 326 324 322 322 321 321 322 323 324 324 324 325 324 324 320 319 322 322 320 323 326 322 321 320 318 318 318 318 321 320
308 308 308 308 309 310 314 319 319 317 321 324 326 329 320 322 326 323 324 323 323 322 323 323 323 323 324 324 324 324 324 321 320 319 315 319 320 319 321 318 317 316 316 316 317 323 321
308 309 308 308 308 309 313 317 319 320 322 322 326 326 321 326 325 324 322 323 323 323 322 322 323 323 323 324 324 324 323 321 320 317 319 321 322 320 319 317 316 315 315 315 316 317 318
309 309 309 308 307 309 310 314 320 322 324 320 326 325 324 325 322 324 321 323 323 322 323 322 323 323 323 324 322 323 322 321 321 319 320 320 322 321 320 317 316 314 314 316 316 316 316
309 309 309 308 308 308 310 312 316 319 319 324 322 322 325 324 325 326 325 323 323 323 323 322 322 323 324 322 321 320 320 319 319 320 320 321 324 322 323 318 317 322 319 316 316 316 316
309 309 309 309 308 308 309 310 314 316 318 324 323 324 326 328 325 324 323 322 323 322 322 322 321 323 322 318 318 318 318 318 318 319 320 321 320 319 319 317 321 316 315 315 315 315 315
309 309 309 309 308 308 309 310 311 314 315 316 319 325 322 321 324 323 322 322 322 321 322 322 321 321 319 319 324 318 319 314 317 316 317 319 320 318 322 319 316 316 316 316 316 316 315
309 309 309 309 309 308 308 309 311 313 315 315 317 321 323 322 325 322 321 322 325 325 323 320 320 321 320 322 319 320 324 318 319 317 315 317 320 321 317 316 318 317 315 314 314 316 316
309 308 308 309 309 308 308 309 311 314 315 315 314 315 322 327 323 323 324 325 323 324 326 321 320 321 322 317 313 316 324 317 320 319 315 314 314 316 317 316 316 315 314 313 316 317 315
309 309 308 308 308 308 308 309 310 314 315 315 314 314 321 323 322 322 322 323 322 324 327 322 323 322 324 314 315 319 320 323 320 317 316 315 315 314 316 317 317 314 315 316 316 315 313
310 309 308 308 308 308 308 308 309 312 314 315 319 314 314 322 323 322 321 321 321 322 322 321 320 322 321 320 317 320 319 316 318 322 315 319 319 321 317 317 315 315 315 314 313 311 309

GFSGBSN_850_thetae_033.txt.gz
Theta_e
307 308 309 310 311 311 312 312 312 312 313 313 313 313 312 312 311 310 310 310 310 312 312 314 314 315 315 318 321 318 318 319 319 319 320 320 320 318 317 318 317 314 315 317 317 318 318
308 309 310 311 311 312 312 312 313 313 313 313 313 312 312 312 311 310 310 310 312 312 314 315 315 315 316 322 318 318 318 318 319 320 321 321 320 319 319 319 316 317 316 316 317 319 318
308 309 310 312 312 312 312 312 313 313 313 312 312 312 312 311 311 310 310 311 312 314 314 316 315 315 317 319 318 318 318 318 319 320 320 320 320 321 321 320 319 319 317 317 318 319 318
309 310 311 312 312 311 312 313 313 314 313 312 312 312 312 311 311 311 311 312 313 314 317 316 315 315 315 320 319 318 317 318 318 320 320 319 320 321 321 320 319 318 317 317 318 319 320
309 310 312 312 312 311 312 313 314 314 313 311 311 312 311 311 311 312 312 313 314 317 317 316 315 315 322 318 317 317 317 319 319 319 319 317 320 321 321 317 317 317 317 319 319 319 320
309 311 313 313 311 312 313 314 315 315 313 311 311 311 311 311 312 312 313 315 317 317 317 317 317 323 322 318 317 317 317 319 319 321 319 320 321 318 316 316 319 318 318 320 318 318 318
310 312 313 312 311 312 313 314 315 315 314 312 311 311 311 312 312 313 315 316 317 318 319 318 319 321 317 315 316 317 318 320 321 321 320 320 318 319 317 317 318 318 318 317 317 318 318
310 313 313 312 311 312 313 315 315 315 314 313 312 312 312 312 312 314 316 321 326 325 320 319 318 318 317 318 318 319 319 320 320 320 320 319 318 318 318 318 318 318 319 320 318 318 317
311 313 313 311 311 312 313 315 315 315 315 314 314 313 312 312 313 316 318 327 325 323 320 318 318 317 318 319 319 319 319 320 320 320 320 319 318 318 319 320 320 320 321 320 320 319 319
311 313 313 312 312 312 313 315 315 315 316 316 315 314 313 314 316 316 321 326 323 318 316 318 318 317 318 319 318 319 318 319 319 320 318 318 319 319 320 321 319 322 322 321 320 319 319
312 313 313 312 312 313 313 315 315 315 317 319 319 315 315 317 325 324 325 324 316 318 319 317 319 317 318 320 318 318 317 319 319 319 319 319 319 321 322 321 320 322 320 321 321 320 320
312 313 313 312 312 313 313 314 315 315 316 318 317 317 317 321 325 324 323 317 315 325 321 320 319 319 317 320 320 318 319 320 320 318 317 318 321 320 320 320 320 321 321 321 321 321 321
312 313 313 313 312 313 313 314 315 315 315 316 316 317 321 323 326 321 317 316 319 327 321 319 319 320 320 321 320 320 319 321 321 320 320 320 320 320 320 320 321 320 320 323 324 323 324
311 312 312 312 313 313 313 313 314 315 315 315 316 317 320 319 324 317 316 323 325 322 320 319 320 321 321 321 321 321 321 320 319 323 322 322 322 319 320 320 320 321 321 320 326 324 324
311 311 311 312 313 313 314 313 313 315 315 315 315 315 315 316 315 317 324 326 325 322 321 320 320 321 321 322 322 322 320 320 318 318 323 324 321 319 319 318 319 319 321 319 320 321 321
311 310 309 311 312 314 314 313 313 313 315 315 315 315 316 314 314 315 324 325 323 321 320 320 321 321 321 320 322 322 322 321 319 319 319 320 322 319 318 318 322 320 318 319 321 321 324
310 308 308 309 312 314 314 313 315 313 314 315 318 318 322 317 314 319 321 324 321 320 322 323 322 321 323 321 321 323 322 320 320 319 317 317 320 320 318 317 317 318 320 319 319 317 318
308 308 308 309 311 314 315 315 316 313 313 315 321 319 324 315 318 321 319 323 320 320 322 323 323 322 323 322 323 323 323 321 319 320 319 316 319 317 318 317 318 318 319 319 315 319 317
308 308 308 308 310 313 315 316 317 313 313 320 322 324 321 316 316 319 321 322 321 320 321 322 323 323 323 324 323 324 322 320 321 319 319 318 318 316 319 319 319 317 317 316 317 312 315
308 308 308 308 309 312 315 317 319 314 314 319 325 319 320 324 326 324 323 322 323 322 322 323 322 323 323 323 323 324 322 321 319 316 315 318 319 317 316 317 315 315 314 314 314 312 315
308 308 308 307 308 310 314 319 319 314 315 324 325 322 318 317 318 322 322 322 323 323 322 322 322 323 323 322 323 323 322 321 320 316 318 318 318 319 318 315 315 314 313 312 312 313 313
308 308 308 307 308 309 312 318 319 318 318 323 325 326 320 319 316 323 319 321 323 322 322 322 322 322 322 322 322 322 322 320 320 318 319 318 318 316 315 317 315 313 313 314 314 315 316
308 308 308 308 307 309 310 315 320 320 322 321 323 323 327 324 320 322 322 323 323 322 322 322 321 320 318 320 319 318 318 318 319 318 319 319 313 311 314 314 312 312 315 314 314 314 314
308 309 309 308 307 308 310 312 316 319 320 324 323 326 325 317 322 322 323 322 323 322 322 321 322 320 318 317 317 316 315 316 319 317 320 314 313 310 307 308 306 315 313 314 315 314 314
309 309 309 309 308 308 309 310 314 316 319 322 322 325 322 311 324 322 322 322 322 322 321 320 320 320 318 320 313 310 309 306 311 315 316 318 309 305 311 311 312 314 315 315 314 315 314
309 309 309 309 308 308 309 310 312 315 315 314 323 324 322 321 319 323 322 321 320 320 320 320 320 320 321 315 306 309 312 313 316 316 311 315 309 306 302 304 306 312 313 313 313 310 313
309 309 309 309 308 308 309 310 313 314 315 316 316 320 323 323 322 323 322 321 323 322 315 320 320 321 321 309 310 307 310 316 315 313 308 306 310 306 303 303 308 312 313 313 310 310 311
309 309 308 308 308 308 308 309 313 315 315 315 314 320 319 323 322 322 323 323 323 323 315 321 315 318 311 309 304 308 311 311 313 315 311 307 307 310 310 309 308 313 314 310 311 313 311
309 309 308 308 308 308 308 309 311 314 315 316 314 316 316 322 321 322 322 322 323 323 322 320 317 321 319 310 309 308 312 310 310 311 314 313 311 310 309 308 310 314 314 314 314 311 310

GFSGBSN_850_thetae_036.txt.gz
Theta_e
307 306 307 308 309 310 311 311 312 312 312 313 313 313 312 312 312 311 310 310 310 310 311 312 313 314 315 316 318 318 317 318 318 318 318 319 321 320 315 316 314 313 314 316 318 317 316
306 306 307 308 309 311 311 312 312 312 313 313 313 312 312 312 312 311 310 310 310 310 312 313 314 315 315 319 321 318 318 318 318 319 320 319 320 320 318 317 314 315 315 315 317 318 318
307 307 308 309 310 311 312 311 312 313 313 313 312 312 312 312 311 310 310 310 310 312 313 314 315 315 316 317 319 317 317 317 317 319 320 319 319 321 319 316 316 315 314 315 316 318 317
307 307 308 309 311 312 312 311 313 313 313 313 312 311 312 312 311 310 310 310 312 313 313 316 315 315 316 319 320 318 317 317 318 319 319 318 320 321 319 318 318 317 315 316 317 316 319
307 308 309 310 312 312 311 312 313 314 314 312 311 311 312 311 311 310 311 312 312 314 316 316 316 316 315 320 317 317 316 319 319 316 317 318 320 320 319 314 314 315 315 317 318 317 318
308 308 309 311 312 312 311 313 314 314 314 312 311 311 311 311 310 311 312 312 315 316 316 316 317 320 317 319 317 316 316 319 319 320 319 320 320 315 314 314 316 317 315 317 317 317 316
308 309 310 312 312 311 312 313 314 315 314 312 311 311 311 311 311 312 313 316 317 318 318 314 316 320 318 317 316 316 316 318 320 320 319 319 316 317 315 315 315 316 316 316 316 317 317
308 309 311 313 312 311 312 314 314 315 314 312 311 311 311 311 312 313 316 320 326 325 318 315 317 318 318 316 317 317 318 319 319 319 319 316 317 317 316 317 318 318 318 318 317 318 315
308 309 312 313 312 311 312 314 315 315 314 314 312 312 312 312 312 315 321 326 324 324 324 318 318 318 317 319 318 318 319 319 319 318 319 317 317 317 319 318 320 320 319 319 319 318 317
309 310 312 313 312 312 313 314 315 315 315 314 313 313 312 312 314 315 316 326 322 320 314 317 317 317 318 318 318 318 318 319 319 317 316 317 317 318 319 319 319 322 320 320 319 317 316
309 310 313 313 312 312 313 314 315 315 316 316 314 313 313 315 323 318 324 325 318 322 314 316 317 317 318 319 318 317 317 320 318 318 316 318 319 319 319 320 319 320 319 319 320 318 319
309 311 313 313 312 312 313 314 315 315 318 318 317 314 315 321 325 323 323 319 319 322 317 317 318 317 317 319 318 317 318 319 320 317 316 318 319 318 319 319 319 320 320 320 319 319 320
310 312 313 313 312 312 313 314 315 315 317 316 318 317 320 323 323 322 320 317 315 324 319 318 317 317 318 319 319 318 318 318 320 318 318 318 319 319 319 319 318 318 319 320 322 322 321
310 313 313 313 312 312 313 313 315 315 317 315 316 319 322 322 322 319 316 317 324 322 319 317 319 319 319 320 319 320 319 319 317 321 318 320 321 318 318 318 319 319 320 318 324 321 319
311 312 313 312 312 313 313 313 315 315 315 315 316 318 318 318 319 318 320 323 322 322 319 318 319 320 321 321 320 319 319 318 317 317 320 321 320 319 317 317 318 318 319 317 318 317 317
311 312 312 311 312 313 314 313 314 315 315 315 315 315 315 315 315 316 322 322 322 320 320 319 319 320 320 320 321 320 320 319 319 317 317 319 320 319 318 317 318 318 316 319 316 319 322
312 311 310 310 311 313 314 313 313 315 315 315 316 315 317 314 314 316 318 321 321 320 322 321 321 319 320 319 320 321 320 319 318 318 315 317 318 318 318 316 317 316 318 317 316 315 317
311 310 309 309 311 314 314 313 313 313 314 315 319 316 323 317 313 316 316 320 320 319 321 321 322 322 320 320 322 322 321 319 319 320 316 316 315 314 317 316 317 317 318 316 313 316 315
310 308 308 308 310 314 314 314 314 313 314 319 320 325 322 316 309 314 316 321 320 319 320 321 322 322 321 321 323 322 320 319 317 317 318 316 315 314 317 317 317 317 317 315 314 310 314
309 308 308 308 310 313 315 316 316 312 314 320 323 317 321 321 322 316 319 320 322 321 321 321 321 321 321 322 321 322 321 320 316 315 315 318 316 314 316 316 314 314 313 311 312 310 313
308 308 308 308 309 312 315 317 317 312 316 322 325 318 316 312 315 321 320 320 322 322 321 321 321 321 321 322 322 321 320 319 319 316 317 316 317 318 316 314 314 313 313 311 311 310 310
308 308 308 307 308 311 315 318 318 314 316 321 324 324 317 314 313 317 318 320 321 321 321 321 321 320 320 320 320 321 319 318 318 316 318 316 316 314 313 314 313 312 311 313 313 314 313
308 308 308 307 308 310 314 318 318 315 315 322 323 324 318 320 313 318 318 318 321 321 321 321 319 317 315 318 317 317 317 318 318 316 317 316 310 308 307 310 309 309 313 313 313 313 313
308 308 308 307 308 310 312 316 319 318 318 323 324 325 323 315 316 317 322 321 321 320 321 320 320 316 318 316 315 316 316 315 316 316 316 312 309 304 304 303 301 311 312 312 314 314 313
308 308 308 307 308 309 311 315 318 319 321 323 323 324 322 308 320 320 321 320 320 320 320 320 319 318 317 314 307 308 307 306 310 313 314 313 305 306 302 308 307 312 314 313 312 313 313
308 309 308 308 308 309 311 313 316 317 320 319 322 322 319 319 317 322 320 320 317 317 316 319 321 319 319 308 303 307 310 307 315 315 311 311 304 303 306 301 302 307 313 313 312 310 313
308 309 309 308 308 309 310 312 314 315 315 315 322 321 321 322 322 323 319 320 321 317 312 319 319 320 317 300 299 303 311 312 313 311 306 308 301 305 298 299 305 307 312 312 310 309 312
309 309 309 308 308 308 310 313 314 315 315 315 318 319 321 322 322 322 323 323 321 320 313 319 314 316 306 304 300 302 307 307 311 312 310 309 306 303 302 300 308 310 312 311 309 313 313
309 309 309 309 308 308 309 312 314 315 316 314 317 319 317 319 320 321 322 323 322 321 320 319 314 317 314 307 303 308 309 310 307 310 310 311 308 308 309 308 308 312 312 313 313 313 310

GFSGBSN_850_thetae_042.txt.gz
Theta_e
314 311 308 308 309 307 306 307 308 308 310 311 311 312 312 312 312 312 312 311 311 310 309 309 310 312 313 315 315 319 318 317 316 317 316 316 318 319 316 313 313 311 313 313 319 322 318
316 312 308 306 308 306 306 307 308 309 310 311 312 312 312 312 311 312 312 311 310 309 309 310 311 312 314 316 317 319 318 317 316 317 317 317 318 320 317 314 313 313 312 313 313 313 314
317 313 309 305 306 306 306 307 308 310 311 311 312 313 312 312 311 311 311 310 310 309 309 311 312 313 314 316 318 318 318 317 317 318 319 319 318 318 317 314 313 313 313 313 314 315 314
318 314 309 307 305 306 306 308 309 310 311 312 313 313 312 311 311 311 311 310 309 309 311 312 313 315 314 315 317 318 317 317 318 318 318 318 318 318 315 315 315 314 312 312 314 315 314
317 315 310 308 305 306 307 308 310 311 311 313 313 313 312 311 311 311 310 309 310 311 311 314 315 316 315 316 319 318 317 317 318 319 319 318 318 317 315 312 312 311 314 315 317 315 315
314 316 311 309 306 306 307 309 311 311 312 313 314 312 311 311 311 310 310 310 311 311 313 315 318 317 315 317 317 316 316 317 319 319 318 319 319 313 310 311 313 314 315 315 316 316 315
314 316 312 309 307 306 308 310 311 311 313 314 313 312 311 311 310 310 310 311 315 315 315 314 315 315 319 317 318 316 316 316 319 319 317 317 315 315 314 313 314 314 314 315 314 314 313
314 316 313 309 307 306 308 311 311 311 313 314 313 311 310 310 310 310 311 316 318 322 319 314 315 316 315 317 317 316 316 318 318 317 317 315 315 314 315 314 314 314 314 315 316 313 313
315 315 314 310 308 307 309 311 311 312 313 314 313 311 310 310 310 311 314 324 323 323 322 318 314 314 317 317 317 317 318 318 317 317 315 315 316 315 317 317 317 317 316 317 316 314 312
316 315 314 310 308 307 310 312 311 312 314 314 312 311 310 310 311 312 318 323 324 323 312 314 316 317 317 317 316 318 318 318 316 316 314 315 316 316 315 317 317 319 318 317 315 313 315
319 315 315 310 307 308 311 312 311 313 314 314 313 311 311 311 314 314 318 325 322 323 313 314 316 316 317 317 316 316 317 318 315 315 314 317 317 317 317 318 317 319 316 316 316 315 315
319 316 315 312 307 308 312 311 312 313 314 314 313 312 312 314 319 316 323 320 321 316 319 315 315 315 316 317 316 316 319 318 317 315 314 316 317 316 317 316 316 316 317 316 315 315 319
317 316 316 313 307 309 312 311 312 313 314 315 314 312 312 319 321 318 321 320 314 317 317 315 315 315 316 317 316 316 316 316 315 316 317 316 317 315 317 318 316 315 316 318 321 319 320
317 317 317 314 307 310 312 311 312 313 314 316 315 313 314 323 324 321 319 311 315 316 318 314 314 315 317 317 317 317 317 316 315 314 315 317 318 317 315 317 317 318 316 316 324 321 318
313 317 316 313 308 312 312 311 313 313 314 315 316 316 317 325 323 317 317 312 313 318 316 316 316 317 319 318 317 316 316 315 316 316 318 318 318 316 315 317 316 317 316 314 316 313 315
309 316 315 310 309 312 311 312 313 314 314 315 317 318 323 323 318 317 312 312 317 319 317 316 317 317 318 318 318 317 319 317 316 314 315 317 319 316 315 316 314 315 313 318 312 315 316
309 316 315 308 310 312 311 312 313 313 314 316 319 321 320 316 317 318 312 313 320 321 318 317 317 317 317 317 318 319 318 317 316 317 315 315 313 315 316 314 315 315 315 313 313 312 314
309 316 313 309 311 312 312 312 313 313 314 318 320 313 320 316 312 311 314 317 319 317 319 320 318 317 316 318 320 319 319 318 317 318 315 314 311 314 315 314 314 314 315 311 308 313 311
312 313 310 310 311 311 312 313 313 313 315 318 317 324 322 316 310 312 314 317 318 317 318 319 320 319 318 319 320 319 318 317 315 316 314 312 312 313 314 312 313 316 313 311 308 307 312
315 313 309 310 310 311 312 313 313 313 314 319 320 317 322 319 310 312 314 316 319 320 319 319 318 318 318 320 317 318 319 317 314 314 316 313 312 312 313 312 312 312 311 312 310 309 310
313 310 309 309 309 311 313 313 313 314 314 320 319 316 318 315 317 312 312 316 319 320 319 319 318 319 319 320 319 319 318 317 314 315 315 311 314 314 312 311 311 311 310 309 310 309 310
311 309 308 308 310 312 314 313 313 313 315 320 321 315 313 311 318 315 313 317 318 319 319 319 318 318 318 318 317 318 316 315 311 314 315 311 313 312 314 310 309 311 310 308 307 308 308
308 308 308 308 310 313 314 313 313 313 315 320 322 317 316 310 312 314 315 317 318 318 319 318 317 315 317 317 317 316 315 314 313 314 313 310 308 308 309 306 304 304 307 308 310 308 308
308 307 307 308 311 313 315 314 314 313 314 319 322 322 318 309 309 314 316 317 318 318 318 317 317 314 314 316 316 316 315 314 314 312 311 307 305 299 301 301 302 306 306 308 309 310 309
307 307 307 309 312 314 316 315 315 313 315 319 322 323 319 305 310 315 317 317 318 318 318 318 317 315 314 311 307 310 305 308 308 309 307 307 302 303 301 303 304 308 311 310 310 309 310
307 306 307 310 312 316 317 316 315 312 314 318 322 323 319 314 314 318 317 317 314 314 315 318 314 313 315 302 303 306 309 311 312 314 309 305 301 303 299 300 300 305 310 311 310 310 310
307 306 309 311 314 316 318 318 314 312 313 317 321 322 320 321 321 319 316 317 317 314 310 317 316 316 313 298 297 301 306 306 311 309 307 306 300 302 294 297 303 303 310 310 310 308 310
307 308 310 312 315 316 318 317 314 313 313 317 320 321 321 321 320 321 320 318 317 317 312 316 313 314 304 304 301 301 301 306 308 309 310 309 308 307 300 297 308 306 310 310 309 309 311
307 308 309 312 315 315 317 317 317 317 320 318 320 321 321 321 319 320 320 320 319 318 318 316 316 314 312 303 296 297 301 306 304 308 307 309 307 306 305 307 307 308 309 311 310 311 311

GFSGBSN_850_thetae_045.txt.gz
Theta_e
315 313 316 312 309 307 309 308 307 307 307 308 309 310 311 312 312 312 311 311 311 310 309 309 308 310 312 313 313 318 318 317 316 316 316 316 316 317 318 316 313 314 313 313 318 323 319
315 314 315 314 311 306 308 308 307 307 307 308 310 311 312 312 312 311 311 311 311 310 309 308 310 311 312 315 315 318 317 317 317 316 316 316 317 318 317 314 313 313 312 311 313 320 319
319 314 313 316 312 308 306 307 306 307 308 309 310 311 312 312 311 311 311 311 310 309 309 309 311 311 313 314 317 317 318 318 317 316 317 317 317 319 318 314 312 313 314 313 313 313 314
321 318 313 316 313 309 306 306 306 307 308 310 311 312 313 312 311 311 311 310 310 309 309 310 311 313 313 314 315 317 319 317 317 317 317 318 318 317 315 313 314 315 314 316 315 314 313
323 321 314 314 315 310 307 305 306 307 309 311 311 312 313 312 311 311 311 310 309 309 310 311 313 315 314 315 317 318 317 316 317 318 318 317 317 315 314 315 316 315 316 316 316 315 315
321 321 317 313 315 311 308 305 306 307 310 311 312 313 313 311 310 311 310 309 310 310 311 313 315 317 315 317 317 317 316 316 318 319 317 317 317 316 314 316 318 317 317 316 317 316 315
319 320 319 314 315 313 308 305 306 308 311 311 312 313 312 310 310 310 309 310 312 314 313 314 313 315 318 316 317 316 316 316 319 318 318 316 318 318 316 314 313 314 315 316 315 314 316
317 320 321 316 314 315 309 306 306 309 311 311 313 313 312 310 310 310 310 313 315 320 319 314 314 314 315 315 317 316 316 317 318 318 316 317 317 314 315 314 315 315 316 317 316 314 316
315 317 320 317 314 315 309 306 306 310 311 312 313 313 311 310 310 309 311 318 325 322 323 317 314 314 316 316 317 316 317 318 316 317 316 318 316 315 317 317 319 318 318 317 318 315 315
310 314 317 319 314 315 310 307 307 311 311 312 313 313 311 310 309 310 312 318 325 325 314 314 316 316 317 317 316 317 318 318 315 317 314 317 316 316 317 318 318 320 317 316 316 316 320
304 311 316 319 315 315 311 307 307 311 311 313 313 313 311 309 311 311 317 318 325 324 315 314 315 315 316 316 316 316 317 317 316 315 315 317 317 317 319 317 316 319 316 317 316 318 318
302 306 314 318 317 315 312 307 308 311 311 313 313 313 311 310 314 314 317 324 323 318 321 315 315 315 316 316 315 316 318 317 316 317 317 316 316 316 317 316 316 317 319 319 318 320 323
302 304 312 317 318 315 311 307 309 311 312 313 313 313 312 311 318 315 322 321 317 319 315 315 314 315 316 316 316 316 316 318 318 320 320 318 317 315 316 319 317 318 320 322 322 324 322
303 302 309 315 319 316 312 307 310 311 312 313 313 314 312 311 323 323 321 313 317 315 318 314 313 315 317 316 317 316 317 319 316 316 318 320 319 317 315 318 320 319 319 325 324 325 323
302 302 306 314 316 316 313 307 311 311 312 313 314 314 312 313 324 324 318 314 316 315 317 315 315 317 317 317 318 317 316 316 315 315 320 320 319 315 314 316 317 319 320 316 319 315 320
300 302 302 312 317 316 313 308 311 311 312 313 315 314 313 314 322 323 313 313 313 317 316 314 315 316 318 318 318 318 318 316 316 314 315 318 321 315 314 315 315 317 315 321 318 320 317
299 302 303 311 316 316 312 309 311 312 313 312 314 316 317 319 323 319 314 313 317 320 318 315 317 317 317 318 318 318 318 317 315 315 315 315 318 316 315 315 318 318 318 315 316 315 316
299 301 303 307 313 316 311 310 311 312 313 313 317 314 322 321 313 310 313 313 318 317 317 318 316 316 317 317 319 319 320 318 317 316 318 314 315 318 316 314 314 315 316 316 318 316 315
299 301 302 305 311 316 309 311 311 312 313 316 319 321 322 320 313 312 312 315 317 317 317 318 319 317 318 319 320 318 318 316 315 315 317 314 315 318 317 315 315 317 315 311 310 312 317
299 301 303 306 309 314 309 312 312 313 313 317 319 319 320 320 310 313 314 314 318 319 318 318 318 318 319 319 318 319 319 316 313 314 314 313 313 316 319 315 314 315 314 312 314 316 314
300 302 302 305 311 311 311 311 312 313 313 319 318 317 319 316 313 311 312 315 318 319 318 317 318 318 319 320 319 319 318 316 314 315 314 314 316 314 312 311 311 311 311 313 313 312 317
302 301 304 307 312 309 311 311 313 312 314 319 317 315 312 312 314 312 312 317 318 318 318 318 319 317 317 319 319 320 318 315 313 314 315 311 316 312 314 310 310 312 311 309 310 309 311
304 303 306 312 309 310 311 312 313 312 314 319 320 317 315 309 313 312 313 316 317 318 318 316 317 317 317 317 316 314 313 313 312 315 314 312 313 313 314 307 306 312 311 312 310 309 311
304 309 310 310 310 310 311 313 313 313 314 318 320 317 313 308 312 313 315 316 317 317 319 316 316 316 314 315 315 315 314 312 312 310 309 309 307 304 310 304 309 310 308 309 311 310 309
308 310 310 309 308 310 312 313 313 313 315 319 319 319 316 306 310 313 316 316 317 317 317 317 316 314 315 312 312 313 311 312 310 309 307 306 306 307 312 309 307 308 307 311 312 312 311
310 309 308 307 310 312 313 314 313 313 316 319 321 322 319 311 310 315 316 316 315 315 315 315 313 312 312 304 309 313 317 315 313 314 309 306 305 312 305 309 309 308 308 311 310 315 309
309 307 307 309 311 313 315 315 313 313 317 319 320 322 319 317 315 317 317 317 316 314 313 313 312 312 311 305 307 312 313 308 313 311 311 312 308 312 302 311 309 306 308 309 313 313 309
307 306 308 311 312 315 316 315 314 313 317 318 320 320 320 320 319 319 318 317 316 317 316 314 315 314 307 310 311 308 311 310 311 310 313 313 312 311 303 309 314 305 310 314 312 308 310
306 310 311 313 315 316 317 317 315 313 315 317 320 321 320 320 318 319 319 318 318 317 318 314 316 313 313 309 303 303 308 307 308 315 308 313 312 312 310 313 307 307 310 310 310 309 310

GFSGBSN_850_thetae_048.txt.gz
Theta_e
323 321 317 314 312 315 311 307 309 308 307 307 308 308 309 310 311 312 312 311 311 311 310 309 308 308 311 316 316 317 317 317 317 317 317 317 317 316 317 317 318 318 317 322 324 324 323
324 324 320 316 313 314 312 308 307 308 307 307 308 308 310 311 312 312 311 311 311 311 310 309 308 310 311 317 314 316 317 317 317 316 317 317 317 317 320 319 319 318 317 322 318 324 320
320 323 323 319 315 313 313 309 306 308 307 307 308 309 310 312 312 312 311 311 311 310 309 308 309 310 312 316 315 318 317 318 318 316 318 318 318 319 320 316 314 315 316 315 316 322 323
320 321 322 322 318 313 314 311 307 306 306 307 308 310 311 312 312 311 311 311 310 309 309 309 310 312 317 313 314 317 317 318 316 316 316 317 317 318 319 315 316 317 318 320 318 322 317
318 319 321 323 320 315 313 313 308 305 306 307 309 310 312 313 312 311 311 310 309 309 309 310 312 314 318 315 316 318 317 316 317 317 316 316 318 319 316 318 318 317 318 319 317 318 318
316 318 319 321 322 317 313 315 309 306 306 307 310 311 312 313 312 310 310 310 309 310 310 311 314 319 316 318 318 317 316 316 319 318 317 317 318 319 318 318 318 318 317 318 318 318 319
305 315 317 319 321 320 314 315 311 307 306 307 310 311 313 313 311 310 310 309 313 315 311 317 316 318 317 316 317 316 315 317 319 320 319 320 321 318 319 318 319 320 319 318 319 319 320
303 309 315 318 318 321 316 314 313 308 306 308 311 312 313 312 310 310 309 314 316 318 320 314 315 315 314 314 318 316 316 317 318 319 321 321 320 319 318 318 319 319 320 321 319 318 321
303 306 312 316 318 320 318 314 315 309 306 309 311 312 313 312 310 310 309 311 320 322 325 319 317 316 316 316 318 317 317 318 319 320 321 321 319 319 320 320 321 321 322 321 321 319 321
303 303 308 314 317 318 320 314 315 309 306 309 311 313 313 311 310 310 309 312 319 324 323 317 317 317 315 318 318 316 317 318 320 321 320 321 319 320 321 321 322 322 320 320 320 321 322
303 303 303 311 315 318 320 315 315 310 307 310 311 313 313 310 310 310 313 315 318 324 318 317 317 316 317 318 317 317 317 318 319 320 319 321 320 321 321 321 320 322 320 321 321 322 322
302 302 302 306 311 316 319 316 315 311 307 311 311 313 313 310 310 311 314 321 325 325 319 317 317 317 318 318 317 317 319 317 318 320 321 321 319 321 321 320 321 321 323 323 323 323 323
301 301 302 302 307 313 317 318 315 311 307 311 312 313 312 310 312 313 318 323 324 322 318 318 317 318 318 318 318 319 320 320 320 322 323 321 321 320 320 322 322 323 323 322 323 323 321
300 301 301 302 304 311 316 318 315 312 307 311 312 313 312 310 316 320 320 323 322 317 318 317 317 318 318 319 319 320 321 321 320 321 322 322 322 320 319 322 322 322 322 321 317 320 322
299 299 300 301 303 309 315 317 316 312 308 311 312 313 313 310 311 322 321 323 320 319 319 318 318 318 319 319 319 320 321 321 321 321 320 322 321 319 319 320 321 323 322 322 324 322 324
298 298 299 302 304 306 315 318 316 311 309 311 312 312 314 311 311 317 323 320 319 320 318 318 317 318 319 320 319 319 321 320 320 319 320 322 322 319 319 319 319 322 321 322 322 323 319
298 297 298 300 303 305 314 317 316 311 310 312 314 315 317 313 313 322 324 320 318 320 320 318 317 319 319 321 320 319 321 320 319 319 320 322 322 321 319 320 321 321 322 321 321 321 317
297 297 298 299 302 303 311 316 316 310 311 312 316 318 317 315 321 322 323 319 317 320 320 319 320 319 319 321 321 320 321 321 319 319 322 320 322 324 321 318 318 320 321 321 320 320 321
296 296 297 298 302 302 310 316 315 309 311 312 317 321 323 320 326 323 319 318 319 320 321 321 321 321 322 322 323 323 323 318 318 319 322 320 322 324 321 320 319 320 320 319 318 320 320
296 296 297 298 301 303 309 311 315 309 312 315 317 324 321 318 319 321 320 319 319 320 321 321 322 322 323 323 322 324 323 319 316 318 313 316 321 322 324 320 320 320 319 318 318 319 317
295 296 297 298 301 303 308 310 314 310 312 317 319 319 320 325 320 319 319 318 318 322 321 321 322 323 323 324 323 324 322 318 317 316 318 320 322 319 317 316 316 318 318 318 318 317 318
295 297 297 299 301 301 305 311 312 311 312 316 319 320 318 321 318 318 317 319 318 321 322 322 323 323 323 324 323 325 323 321 321 319 321 318 321 318 319 316 315 316 316 316 318 318 317
296 298 299 301 301 301 303 309 310 311 312 317 318 317 319 316 319 318 318 318 318 322 321 320 323 323 324 322 321 321 319 318 319 322 321 320 320 319 319 313 314 319 318 317 316 317 317
297 299 300 301 302 303 304 311 309 311 312 319 319 316 319 319 318 317 316 318 320 322 323 319 320 323 317 316 317 317 317 317 316 315 316 318 318 316 319 311 324 315 312 313 317 317 316
299 299 301 302 301 303 305 311 309 312 313 318 319 316 314 319 317 316 317 320 320 320 322 321 318 317 316 317 321 321 321 321 318 314 314 314 316 316 326 315 314 313 311 311 313 313 315
300 300 303 305 305 307 310 309 310 312 314 318 320 318 315 317 317 316 318 320 323 323 322 316 313 313 312 317 323 326 326 323 321 320 313 312 314 319 315 329 329 313 312 313 313 315 314
302 305 304 307 310 309 309 309 312 313 314 317 320 319 316 319 315 318 319 320 321 322 323 316 314 315 312 321 325 329 325 316 320 320 318 319 317 323 318 327 317 313 312 313 315 314 314
306 307 310 310 309 308 309 312 313 312 314 318 319 318 319 320 318 318 317 318 318 321 324 317 318 317 317 324 323 322 325 317 316 315 318 320 322 320 316 323 323 310 313 317 316 313 313
309 309 308 308 308 310 312 313 313 313 316 318 319 319 320 319 318 318 317 317 318 319 319 317 322 319 320 322 319 316 318 312 320 323 313 319 318 319 318 318 313 311 315 314 312 313 313